www.pogodaiklimat.ru

Погода и климат >> Архив погоды >> Россия >> Магаданская область >> Сусуман


ПОГОДА в Сусумане

  • Прогноз погоды в Сусумане
  • Монитор погоды в Сусумане
  • Климат города

АРХИВ ПОГОДЫ в Сусумане

Время (UTC), дата Ветер
(напр.,м/с)
 
Видим.   Явления Облачность Т
(С)
Тd
(С)
f
(%)
Тe
(С)
Тes
(С)
Комфортность P
(гПа)
Po
(гПа)
Тmin
(С)
Tmax
(С)
R
(мм)
R24
(мм)
S
(см)
09 10.12 штиль 0 50 км 6/1 1000 м
[Sc Ac trans]
-35.7 -39.7 67 -36 -36 опасность
обморожения
1040.2 947.4 -35.7 0.0
12 10.12 штиль 0 10 км слабый снег 10/0
[As op]
-33.2 -36.9 69 -33 -33 опасность
обморожения
1040.6 948.6
15 10.12 З 1 10 км слабый снег 10/0
[As op]
-31.6 -35.1 71 -36 -36 опасность
обморожения
1040.4 949.0
18 10.12 С 1 10 км слабый снег 10/0
[As op]
-30.1 -33.3 74 -34 -34 опасность
обморожения
1041.3 950.4
21 10.12 В 1 50 км {снег} 9/0
[Ac As]
-28.5 -31.8 73 -32 -32 опасность
обморожения
1041.9 951.5 -35.7 1 15
00 11.12 СВ 3 50 км {снег} 10/0
[As op]
-27.1 -30.5 73 -36 -36 опасность
обморожения
1042.2 952.3
03 11.12 С 4 50 км 10/4 1000 м
[Sc As op]
-22.8 -26.4 72 -32 -32 опасность
обморожения
1040.6 952.2
06 11.12 СВ 5 50 км 10/6 930 м
[Sc As op]
-23.4 -27.4 70 -34 -34 опасность
обморожения
1041.0 952.4
09 11.12 СВ 4 50 км позёмок {метель} 9/6 900 м
[Sc Ac As]
-22.3 -26.8 67 -32 -32 опасность
обморожения
1040.6 952.5 -22.3
12 11.12 С 6 50 км позёмок {метель} 10/4 1000 м
[Sc Ac As]
-22.5 -26.9 67 -34 -34 опасность
обморожения
1040.2 952.1
15 11.12 С 6 50 км позёмок {метель} 10/4 1000 м
[Sc Ac As]
-22.4 -26.8 67 -34 -34 опасность
обморожения
1039.1 951.0
18 11.12 С 6
{10}
50 км позёмок {метель} 10/3 1000 м
[Sc Ac As]
-23.0 -27.2 68 -35 -35 опасность
обморожения
1039.4 951.1
21 11.12 С 5
{10}
50 км позёмок {метель} 10/3 1000 м
[Sc Ac As]
-22.8 -27.1 68 -34 -34 опасность
обморожения
1039.1 950.9 -23.4 15
00 12.12 С 5 50 км позёмок {метель} 10/3 1000 м
[Sc diur, vesp As op]
-22.1 -26.5 67 -33 -33 опасность
обморожения
1038.4 950.5
03 12.12 С 5 50 км позёмок {метель} 10/3 1000 м
[Sc diur, vesp As op]
-22.0 -26.6 66 -33 -33 опасность
обморожения
1037.9 950.1
06 12.12 С 4 50 км позёмок {метель} 10/3 1000 м
[Sc diur, vesp As op]
-22.4 -26.5 69 -32 -32 опасность
обморожения
1037.8 949.8
09 12.12 С 4 50 км позёмок {метель} 10/3 1000 м
[Sc diur, vesp As op]
-23.0 -27.0 70 -33 -33 опасность
обморожения
1038.2 950.0 -21.7
12 12.12 С 3 10 км слабый снег {метель} 10/4 1000 м
[Sc diur, vesp As op]
-24.0 -27.8 71 -32 -32 опасность
обморожения
1038.2 949.7
15 12.12 ЮЗ 1 10 км слабый снег 10/4 1000 м
[Sc diur, vesp As op]
-27.3 -30.5 74 -31 -31 опасность
обморожения
1038.7 949.0
18 12.12 Ю 1 10 км слабый снег 10/4 1000 м
[Sc diur, vesp As op]
-27.4 -30.5 75 -31 -31 опасность
обморожения
1038.0 948.4
21 12.12 ЮЗ 1 10 км слабый снег 10/4 1000 м
[Sc diur, vesp As op]
-29.2 -32.2 75 -33 -33 опасность
обморожения
1038.4 948.1 -29.3 0.2 16
00 13.12 В 1 50 км {снег} 9/0
[Ac As Ci fib]
-30.6 -33.9 73 -35 -35 опасность
обморожения
1039.0 948.1 -31.1
03 13.12 штиль 0 50 км 9/0
[As trans Ci fib]
-28.3 -31.7 72 -28 -28 1036.9 947.0
06 13.12 В 1 50 км 8/0
[Ci fib]
-29.7 -32.8 74 -34 -34 опасность
обморожения
1037.2 946.8
09 13.12 штиль 0 50 км 6/0
[Ci fib]
-33.2 -36.5 72 -33 -33 опасность
обморожения
1038.0 946.2 -27.9 0.0
12 13.12 ЮЗ 2 50 км 4/0
[Ci fib]
-34.9 -38.6 69 -43 -43 опасность
обморожения
1038.5 946.1
15 13.12 В 1 50 км 6/0
[Ci fib]
-35.0 -38.7 69 -40 -40 опасность
обморожения
1037.9 945.5
18 13.12 СВ 2 50 км 5/0
[Ci fib]
-36.8 -40.8 66 -45 -45 опасность
обморожения
1038.1 945.1
21 13.12 СВ 2 50 км 3/0
[Ci fib]
-38.6 -42.8 64 -48 -48 опасность
обморожения
1038.6 944.8 -39.3 16
00 14.12 С 1 50 км 8/0
[Ac trans Ci fib]
-39.3 -43.6 63 -44 -44 опасность
обморожения
1037.8 943.8 -39.4
03 14.12 Ю 1 50 км 8/0
[Ac trans Ci fib]
-37.9 -42.1 65 -43 -43 опасность
обморожения
1036.2 942.9
06 14.12 ЮЗ 1 50 км 9/0
[Ac trans Ci fib]
-36.4 -40.3 67 -41 -41 опасность
обморожения
1034.5 942.0
09 14.12 ЮЗ 1 20 км слабый снег 10/0
[As op]
-35.4 -39.3 67 -40 -40 опасность
обморожения
1031.8 939.9 -35.4 0.0
12 14.12 ЮЗ 1 20 км слабый снег 10/0
[As op]
-34.3 -38.1 68 -39 -39 опасность
обморожения
1029.0 937.6
15 14.12 Ю 1 20 км слабый снег 10/0
[As op]
-33.3 -37.0 69 -38 -38 опасность
обморожения
1025.5 934.9
18 14.12 Ю 2 10 км слабый снег 10/0
[As op]
-31.2 -34.6 72 -39 -39 опасность
обморожения
1022.4 932.7
21 14.12 ЮВ 1 4000 м снег 10/0
[As op]
-29.8 -33.0 74 -34 -34 опасность
обморожения
1020.0 931.1 -35.4 2 17
00 15.12 С 1 4000 м снег 10/0
[As op]
-28.4 -31.4 75 -32 -32 опасность
обморожения
1019.2 930.8
03 15.12 Ю 1 4000 м снег 10/0
[As op]
-27.0 -29.9 76 -31 -31 опасность
обморожения
1018.4 930.5
06 15.12 ЮВ 1 10 км слабый снег 10/0
[As op]
-27.0 -29.9 76 -31 -31 опасность
обморожения
1018.9 931.0
09 15.12 штиль 0 50 км {снег} 9/0
[Ac As]
-30.0 -33.0 75 -30 -30 1020.4 931.3 -25.3 3
12 15.12 штиль 0 50 км {снег} 9/0
[Ac As]
-28.6 -31.6 75 -29 -29 1020.4 931.9
15 15.12 З 1 20 км слабый снег 10/0
[As op]
-27.3 -30.7 73 -31 -31 опасность
обморожения
1020.3 932.2
18 15.12 СВ 3 20 км слабый снег 10/0
[As op]
-27.8 -30.9 75 -37 -37 опасность
обморожения
1020.7 932.3
21 15.12 штиль 0 50 км {снег} 9/0
[Ac As]
-31.3 -34.6 73 -31 -31 опасность
обморожения
1022.5 932.8 -31.5 0.2 18
00 16.12 штиль 0 4000 м слабый снег 10/5 900 м
[Sc diur, vesp As op]
-30.1 -33.4 73 -30 -30 1021.9 932.7 -31.7
03 16.12 штиль 0 4000 м слабый снег 10/3 1000 м
[Sc diur, vesp As op]
-29.0 -32.3 73 -29 -29 1021.3 932.5
06 16.12 штиль 0 4000 м слабый снег 10/3 1000 м
[Sc diur, vesp As op]
-28.2 -31.3 75 -28 -28 1020.6 932.2
09 16.12 штиль 0 4000 м слабый снег 10/3 1000 м
[Sc diur, vesp As op]
-28.6 -31.7 75 -29 -29 1020.5 932.0 -28.2 0.4
12 16.12 штиль 0 4000 м слабый снег 10/3 600 м
[Sc diur, vesp As op]
-29.5 -32.6 74 -30 -30 1021.0 932.1
15 16.12 штиль 0 4000 м слабый снег 10/0
[As op]
-31.8 -35.2 72 -32 -32 опасность
обморожения
1021.8 932.0
18 16.12 штиль 0 4000 м слабый снег 10/0
[As op]
-34.3 -37.9 70 -34 -34 опасность
обморожения
1022.7 931.9
21 16.12 штиль 0 50 км в посл. час снег 10/0
[Ac As]
-38.8 -42.9 65 -39 -39 опасность
обморожения
1024.7 932.1 -38.8 0.5 18
00 17.12 штиль 0 50 км {снег} 3/0
[Ci fib]
-42.1 -46.7 61 -42 -42 опасность
обморожения
1027.0 933.0 -42.1
03 17.12 штиль 0 20 км местами туман поземный ясно -39.7 -44.1 63 -40 -40 опасность
обморожения
1025.6 932.6
06 17.12 В 1 20 км местами туман поземный ясно -41.1 -45.4 63 -46 -46 опасность
обморожения
1026.3 932.7

 

Местоположение метеостанции Сусуман (Магаданская область, Россия): широта 62.78 долгота 148.10 высота над уровнем моря 655 м.

В архиве по умолчанию представлена погода в Сусумане за последнюю неделю. Архивные данные за месяц целиком и за предыдущие месяцы, начиная с января 2011 года, Вы можете получить, выбрав интересующий диапазон дат из раскрывающегося списка и нажав кнопку "Ввод!".

Внимание! Время в таблицах - всемирное. Для получения местного времени необходимо прибавить поправку, которая в Сусумане равна 11 ч.

Смотрите также архив погоды в соседних городах и на ближайших метеорологических станциях:

Погода в Ягодной (Магаданская область, Россия) (82 км)
Погода в Озере Джека Лондона (Магаданская область, Россия) (106 км)
Погода в Колымской (Магаданская область, Россия) (107 км)
Погода в Совхозе Эльген (Магаданская область, Россия) (127 км)
Погода в Усть-Бохапче (Магаданская область, Россия) (149 км)
Погода в Делянкире (Якутия, Россия) (171 км)
Погода в Усть-Омчуге (Магаданская область, Россия) (201 км)
Погода в Среднекане (Магаданская область, Россия) (218 км)
Погода в Сеймчане (Магаданская область, Россия) (219 км)
Погода в Оймяконе (Якутия, Россия) (258 км)

Пояснения к столбцам:

Ветер - указаны скорость ветра в м/с - средняя за 10 мин, порывы в срок и между сроками (в фигурных скобках) и направление, откуда дует ветер: С - северный, СВ - северо-восточный, В - восточный, ЮВ - юго-восточный, Ю - южный, ЮЗ - юго-западный, З - западный, СЗ - северо-западный.
Видимость - горизонтальная дальность видимости в метрах или километрах. При видимости от 1 до 10 км при отсутствии осадков обычно наблюдается дымка, при ухудшении видимости до 1 км и менее - туман. В сухую погоду видимость может ухудшаться дымом, пылью или мглою.
Явления - указаны атмосферные явления, наблюдавшиеся в срок или в последний час перед сроком; фигурными скобками обозначены явления, наблюдавшиеся между сроками (за 1-3 часа до срока); квадратными скобками обозначены град или гололедные отложения с указанием их диаметра в мм.
Облачность - указаны через наклонную черту общая и нижняя облачность в баллах и высота нижней границы облаков в метрах; квадратными скобками обозначены формы облаков: Ci - перистые, Cs - перисто-слоистые, Cc - перисто-кучевые, Ac - высококучевые, As - высокослоистые, Sc - слоисто-кучевые, Ns - слоисто-дождевые, Cu - кучевые, Cb - кучево-дождевые. Подробнее классификацию облаков см. в Атласе облаков (PDF).
T - Температура воздуха - температура, измеренная на высоте 2 м над землей.
Td - Температура точки росы - температура, при понижении до которой содержащийся в воздухе водяной пар достигнет насыщения.
f - Относительная влажность воздуха - влажноcть воздуха, измеренная на высоте 2 м над землей.
Te - Эффективная температура - температура, которую ощущает одетый по сезону человек в тени. Характеристика душности погоды. При расчете учитывается влияние влажности воздуха и скорости ветра на теплоощущения человека.
Tes - Эффективная температура на солнце - температура, которую ощущает человек, с поправкой на солнечный нагрев. Характеристика знойности погоды. Зависит от высоты солнца над горизонтом, облачности и скорости ветра. Ночью, в пасмурную погоду, а также при ветре 12 м/с и более поправка равна нулю.
P - Атмосферное давление - приведенное к уровню моря атмосферное давление.
Po - Атмосферное давление - измеренное на уровне метеостанции атмосферное давление.
Tmin - Минимальная температура - минимум температуры воздуха на высоте 2 м над землей.
Tmax - Максимальная температура - максимум температуры воздуха на высоте 2 м над землей.
R - Количество осадков - Количество выпавших осадков за период времени, мм. При наведении курсора мыши на число - период времени, за который выпало указанное количество осадков.
R24 - Количество осадков - Количество выпавших осадков за 24 часа, мм.
S - Снежный покров - Высота снежного покрова, см. При наведении курсора мыши на число - состояние снежного покрова и степень покрытия местности в баллах.